This is the latest recevied weather packets stored in our database for station/object WV5G-13. If no packets are shown the sender has not sent any weather packets the latest 10 day(s).
| Time | Temp. | Humidity | Pressure | Rain* | Wind** | Luminosity | Snow |
|---|---|---|---|---|---|---|---|
| 1778017979 | 16.67° C | 42% | 1007 hPa | 0 mm | - | 450 W/m² | - |
| 1778017677 | 16.67° C | 42% | 1007.2 hPa | 0 mm | - | 436 W/m² | - |
| 1778017374 | 16.67° C | 41% | 1007.6 hPa | 0 mm | - | 472 W/m² | - |
| 1778017071 | 17.22° C | 41% | 1007.7 hPa | 0 mm | - | 331 W/m² | - |
| 1778016769 | 17.22° C | 42% | 1007.8 hPa | 0 mm | - | 490 W/m² | - |
| 1778016464 | 16.67° C | 42% | 1007.9 hPa | 0 mm | - | 394 W/m² | - |
| 1778016162 | 16.67° C | 42% | 1007.9 hPa | 0 mm | - | 426 W/m² | - |
| 1778015858 | 16.67° C | 42% | 1008 hPa | 0 mm | - | 573 W/m² | - |
| 1778015556 | 16.11° C | 42% | 1008.2 hPa | 0 mm | - | 418 W/m² | - |
| 1778015252 | 16.67° C | 42% | 1008.2 hPa | 0 mm | - | 487 W/m² | - |
| 1778014949 | 16.67° C | 41% | 1008 hPa | 0 mm | - | 382 W/m² | - |
| 1778014647 | 16.11° C | 42% | 1008.1 hPa | 0 mm | - | 443 W/m² | - |
| 1778014345 | 16.11° C | 42% | 1008.5 hPa | 0 mm | - | 395 W/m² | - |
| 1778014041 | 16.67° C | 41% | 1008 hPa | 0 mm | - | 466 W/m² | - |
| 1778013739 | 16.11° C | 42% | 1008.3 hPa | 0 mm | - | 517 W/m² | - |
| 1778013436 | 16.67° C | 42% | 1008.3 hPa | 0 mm | - | 549 W/m² | - |
| 1778013133 | 15.56° C | 43% | 1008.2 hPa | 0 mm | - | 451 W/m² | - |
| 1778012828 | 15.56° C | 43% | 1008.7 hPa | 0 mm | - | 386 W/m² | - |
| 1778012525 | 15.56° C | 43% | 1008.6 hPa | 0 mm | - | 503 W/m² | - |
| 1778012221 | 16.11° C | 43% | 1008.5 hPa | 0 mm | - | 521 W/m² | - |
| 1778011919 | 15.56° C | 43% | 1008.5 hPa | 0 mm | - | 440 W/m² | - |
| 1778011617 | 15.56° C | 43% | 1008.6 hPa | 0 mm | - | 410 W/m² | - |
| 1778011314 | 15.56° C | 43% | 1008.3 hPa | 0 mm | - | 443 W/m² | - |
| 1778011009 | 15.56° C | 42% | 1008.3 hPa | 0 mm | - | 477 W/m² | - |
| 1778010707 | 16.11° C | 42% | 1008.1 hPa | 0 mm | - | 485 W/m² | - |
* Rain latest hour (hover to see other rain measurements)
** Current wind speed in m/s (hover to see current wind gust speed)